Vorticity
5 5 4 2 4 3 3 6 9 5 3 2 1 1 0 4 5 -1 11 14 -13 24
4 5 4 5 5 4 4 4 3 2 2 1 2 5 7 4 9 11 -14 9 14 -4
3 3 3 3 3 3 3 4 4 4 3 7 6 -0 3 -0 11 66 42 2 -2 1
10 14 6 3 9 -3 -0 4 8 9 10 6 -1 -3 4 30 66 18 -1 6 3 3
6 11 13 17 -1 -5 13 32 17 -3 -6 7 13 26 69 -10 0 3 9 7 3 4
6 4 7 19 13 -9 13 5 9 23 -5 -3 31 24 38 -5 -1 0 1 5 6 10
15 15 15 11 13 19 -2 7 12 1 19 21 16 10 5 6 8 8 7 7 8 4
25 8 16 12 11 14 17 7 12 13 8 10 9 1 2 4 -0 2 4 5 8 9
-2 24 16 7 15 15 13 10 8 7 12 12 7 7 6 5 4 7 6 10 9 8
1 11 23 8 9 13 10 6 4 5 4 5 7 5 6 7 10 10 8 8 8 11
5 19 16 18 9 12 10 7 5 6 2 9 6 9 12 12 9 8 9 11 11 9
4 20 11 10 12 10 6 9 10 6 4 5 9 13 7 8 8 11 11 10 8 7
9 16 10 9 9 14 13 13 14 5 7 10 12 8 9 10 10 10 8 9 10 8
15 6 10 11 8 9 15 15 11 12 15 11 7 8 8 10 10 9 9 11 9 9
Height
3089 3091 3094 3096 3096 3099 3102 3105 3107 3109 3112 3114 3116 3116 3116 3117 3116 3116 3116 3113 3113 3116
3088 3089 3091 3093 3095 3096 3099 3100 3102 3104 3104 3105 3106 3107 3107 3105 3104 3103 3102 3105 3106 3108
3084 3085 3087 3088 3090 3092 3094 3094 3095 3097 3097 3097 3098 3096 3095 3095 3094 3091 3095 3098 3099 3100
3078 3081 3082 3084 3086 3084 3085 3086 3085 3086 3087 3088 3087 3084 3083 3076 3084 3085 3087 3090 3091 3091
3073 3074 3073 3073 3074 3075 3076 3073 3075 3077 3077 3079 3078 3073 3071 3074 3078 3077 3080 3082 3082 3082
3064 3064 3064 3065 3065 3067 3067 3068 3067 3068 3069 3070 3069 3068 3065 3066 3069 3071 3073 3073 3073 3073
3055 3056 3057 3057 3057 3058 3060 3061 3061 3062 3063 3064 3064 3063 3064 3065 3066 3065 3065 3064 3063 3063
3049 3049 3049 3049 3049 3050 3051 3052 3054 3053 3055 3056 3057 3059 3059 3058 3058 3057 3056 3055 3053 3053
3040 3041 3041 3041 3041 3042 3042 3043 3045 3046 3048 3048 3049 3049 3050 3050 3050 3048 3047 3046 3045 3042
3032 3031 3031 3033 3033 3034 3035 3037 3038 3039 3040 3041 3041 3042 3042 3041 3040 3040 3038 3035 3033 3032
3024 3023 3023 3023 3025 3026 3027 3028 3029 3031 3031 3031 3032 3032 3032 3031 3030 3029 3027 3025 3023 3021
3016 3015 3015 3015 3016 3017 3018 3019 3020 3021 3021 3021 3021 3021 3021 3021 3019 3018 3017 3015 3014 3013
3009 3007 3006 3006 3006 3007 3008 3009 3009 3011 3011 3011 3010 3011 3011 3011 3010 3009 3008 3006 3004 3002
3001 3000 2999 2998 2998 2998 2997 2998 2999 3000 3001 3001 3002 3002 3002 3001 3000 2999 2997 2995 2992 2990